Location: Vancouver
(49.2500°N, 123.1330°W)
Time: 03:30:28
(UTC-07:00)

BREEZE-M DEB (TANK) - Visible Passes

Search period start: 25 June 2017 00:00
Search period end: 05 July 2017 00:00
Orbit: 270 x 13270 km, 49.6° (Epoch: 24 June)

Date Brightness Start Highest point End Pass type
(mag) Time Alt. Az. Time Alt. Az. Time Alt. Az.
26 Jun 4.0 03:05:03 12° SSE 03:06:16 14° ESE 03:08:34 10° E visible
27 Jun 3.1 04:05:30 12° SW 04:07:59 43° SE 04:14:41 10° ENE visible
30 Jun 3.5 02:56:42 17° SSE 02:57:30 19° SE 03:00:42 10° E visible
01 Jul 2.8 03:57:06 14° SW 03:59:25 54° SSE 04:06:23 10° ENE visible
04 Jul 3.1 02:48:06 23° SSE 02:48:35 24° SE 02:52:21 10° E visible
